TimeEDT,TemperatureF,Dew PointF,Humidity,Sea Level PressureIn,VisibilityMPH,Wind Direction,Wind SpeedMPH,Gust SpeedMPH,PrecipitationIn,Events,Conditions,WindDirDegrees,DateUTC
12:54 AM,77.0,73.0,88,29.80,8.0,Calm,Calm,-,N/A,,Clear,0,2013-09-02 04:54:00
1:54 AM,77.0,73.9,90,29.80,7.0,Calm,Calm,-,N/A,,Partly Cloudy,0,2013-09-02 05:54:00
2:54 AM,75.9,73.0,91,29.79,7.0,ESE,3.5,-,N/A,,Clear,120,2013-09-02 06:54:00
3:42 AM,75.2,71.6,89,29.79,6.0,Calm,Calm,-,N/A,,Scattered Clouds,0,2013-09-02 07:42:00
3:54 AM,75.0,72.0,90,29.78,6.0,Calm,Calm,-,N/A,,Mostly Cloudy,0,2013-09-02 07:54:00
4:04 AM,75.2,71.6,89,29.78,6.0,Calm,Calm,-,N/A,,Scattered Clouds,0,2013-09-02 08:04:00
4:33 AM,75.2,73.4,94,29.78,4.0,Calm,Calm,-,N/A,,Mostly Cloudy,0,2013-09-02 08:33:00
4:54 AM,75.0,73.9,96,29.78,3.0,Calm,Calm,-,N/A,,Overcast,0,2013-09-02 08:54:00
5:42 AM,75.2,73.4,94,29.78,2.0,Calm,Calm,-,N/A,,Overcast,0,2013-09-02 09:42:00
5:51 AM,75.2,73.4,94,29.78,1.2,ESE,3.5,-,N/A,,Overcast,120,2013-09-02 09:51:00
5:54 AM,75.9,73.9,94,29.78,1.0,ESE,3.5,-,N/A,,Overcast,120,2013-09-02 09:54:00
6:02 AM,75.2,73.4,94,29.78,0.8,ESE,3.5,-,N/A,,Overcast,120,2013-09-02 10:02:00
6:54 AM,75.9,75.0,97,29.78,0.2,Calm,Calm,-,N/A,Fog,Fog,0,2013-09-02 10:54:00
7:33 AM,75.2,75.2,100,29.79,1.2,ESE,3.5,-,N/A,,Overcast,120,2013-09-02 11:33:00
7:54 AM,75.9,75.0,97,29.80,1.8,ESE,3.5,-,N/A,,Overcast,120,2013-09-02 11:54:00
8:07 AM,77.0,75.2,94,29.80,2.0,ESE,3.5,-,N/A,,Overcast,120,2013-09-02 12:07:00
8:16 AM,77.0,75.2,94,29.80,2.5,Calm,Calm,-,N/A,,Overcast,0,2013-09-02 12:16:00
8:38 AM,78.8,75.2,89,29.79,3.0,ESE,3.5,-,N/A,,Overcast,110,2013-09-02 12:38:00
8:54 AM,78.1,75.0,90,29.80,3.0,Calm,Calm,-,N/A,,Overcast,0,2013-09-02 12:54:00
9:47 AM,78.8,75.2,89,29.80,3.0,East,5.8,-,N/A,Thunderstorm,Overcast,80,2013-09-02 13:47:00
9:54 AM,79.0,75.0,88,29.80,4.0,ENE,6.9,-,N/A,Thunderstorm,Overcast,70,2013-09-02 13:54:00
10:38 AM,78.8,75.2,89,29.79,2.0,East,5.8,-,0.03,Rain-Thunderstorm,Heavy Thunderstorms and Rain,90,2013-09-02 14:38:00
10:46 AM,78.8,75.2,89,29.80,1.2,SE,5.8,-,0.09,Rain-Thunderstorm,Heavy Thunderstorms and Rain,130,2013-09-02 14:46:00
10:54 AM,78.1,75.0,90,29.80,0.8,ESE,5.8,-,0.21,Rain-Thunderstorm,Heavy Thunderstorms and Rain,120,2013-09-02 14:54:00
11:21 AM,75.2,73.4,94,29.80,0.5,ESE,8.1,17.3,0.35,Fog-Rain-Thunderstorm,Heavy Rain,110,2013-09-02 15:21:00
11:32 AM,77.0,75.2,94,29.79,1.5,ESE,9.2,-,0.62,Rain-Thunderstorm,Light Rain,120,2013-09-02 15:32:00
11:36 AM,77.0,75.2,94,29.79,3.0,SE,5.8,-,0.62,Rain,Light Rain,140,2013-09-02 15:36:00
11:46 AM,78.8,75.2,89,29.80,2.5,Variable,6.9,-,0.62,Thunderstorm,Overcast,0,2013-09-02 15:46:00
11:54 AM,75.9,72.0,87,29.80,4.0,Variable,4.6,-,0.62,Rain-Thunderstorm,Light Rain,0,2013-09-02 15:54:00
12:10 PM,73.4,69.8,88,29.81,6.0,Variable,4.6,-,0.01,Rain-Thunderstorm,Rain,0,2013-09-02 16:10:00
12:28 PM,73.4,69.8,88,29.81,4.0,SSW,5.8,-,0.03,Rain-Thunderstorm,Rain,210,2013-09-02 16:28:00
12:54 PM,73.9,71.1,91,29.80,4.0,SW,5.8,-,0.06,Rain,Light Rain,220,2013-09-02 16:54:00
1:54 PM,77.0,71.1,82,29.79,10.0,Calm,Calm,-,0.02,Rain,Light Rain,0,2013-09-02 17:54:00
2:54 PM,78.1,71.1,79,29.79,10.0,Calm,Calm,-,0.00,,Overcast,0,2013-09-02 18:54:00
3:54 PM,81.0,70.0,69,29.76,10.0,Calm,Calm,-,N/A,,Clear,0,2013-09-02 19:54:00
4:54 PM,81.0,71.1,72,29.75,10.0,Variable,3.5,-,N/A,,Partly Cloudy,0,2013-09-02 20:54:00
5:54 PM,82.0,69.1,65,29.75,10.0,Calm,Calm,-,N/A,,Clear,0,2013-09-02 21:54:00
6:54 PM,80.1,71.1,74,29.74,10.0,South,3.5,-,N/A,,Clear,190,2013-09-02 22:54:00
7:54 PM,78.1,70.0,76,29.73,10.0,Variable,3.5,-,N/A,,Clear,0,2013-09-02 23:54:00
8:54 PM,75.9,71.1,85,29.74,10.0,SE,3.5,-,N/A,,Clear,130,2013-09-03 00:54:00
9:54 PM,75.9,72.0,87,29.74,10.0,SSE,3.5,-,N/A,,Clear,150,2013-09-03 01:54:00
10:54 PM,75.0,72.0,90,29.74,9.0,ESE,3.5,-,N/A,,Clear,110,2013-09-03 02:54:00
11:54 PM,75.0,72.0,90,29.76,10.0,Calm,Calm,-,N/A,,Clear,0,2013-09-03 03:54:00